User: anonymous   Login
Location: Unspecified
(0.0000°N, 0.0000°E)
Time: 06:09:57
(UTC+00:00)
Language:

AEHF 2 (USA 235) - Orbit

View from above orbital plane
View from above orbital plane
View from above satellite
View from above satellite

Ground track
Ground track

The orbit data is extracted from the following two-line orbital elements,

1 38254U 12019A   17295.07267121 0.00000000  00000-0  00000-0 0    08
2 38254   1.5238 349.3073 0003453 124.5384 235.5117  1.00270000    08
Epoch (UTC): 22 October 2017 01:44:38
Eccentricity: 0.0003453
inclination: 1.5238°
perigee height: 35772 km
apogee height: 35801 km
right ascension of ascending node: 349.3073°
argument of perigee: 124.5384°
revolutions per day: 1.00270000
mean anomaly at epoch: 235.5117°
orbit number at epoch: 0

The dashed part of the orbit path shows where the satellite is in the earth's shadow,  

DLR